{"data":{"norad_id":64099,"epoch":"2026-09-20T13:16:42.449376Z","epoch_age_seconds":138917,"freshness":"FRESH","line1":"1 64099U 25110D   26263.55326909  .00014961  00000+0  45293-3 0  9991","line2":"2 64099  53.1604 201.1697 0000711  88.8567 271.2517 15.34406421 75722","mean_motion":15.34406421,"eccentricity":7.11e-5,"inclination_deg":53.1604,"raan_deg":201.1697,"arg_perigee_deg":88.8567,"mean_anomaly_deg":271.2517,"bstar":0.00045293,"rev_number":7572,"period_min":93.84736535849,"perigee_km":462.19777332432,"apogee_km":463.17053809266,"semimajor_km":6840.8211557085,"source":"CELESTRAK","updated_at":"2026-09-21T09:00:35.226903Z"}}